Tracking 25709 objects as of 25-May-2022
HD Live streaming from Space Station
objects crossing your sky now

METEOSAT 4 AKM

Track METEOSAT 4 AKM now!


NORAD ID: 20800
Int'l Code: 1989-020E
Perigee: 35,214.2 km
Apogee: 36,264.3 km
Inclination: 12.8 °
Period: 1,433.3 minutes
Semi major axis: 42110 km
RCS: 1 m2 (large)
Launch date: March 6, 1989
Source: European Space Agency (ESA)
Launch site: FRENCH GUIANA (FRGUI)

Note: This is a ROCKET BODY
aabbcc
Your satellite tracking list
Your tracking list is empty




NASA's NSSDC Master Catalog

Two Line Element Set (TLE):
1 20800U 89020E   22144.58707500 -.00000104  00000-0  00000-0 0  9990
2 20800  12.7656 341.4060 0124674 214.8086 134.9963  1.00466475101280
Source of the keplerian elements: AFSPC